BEL2PN EBBR-EDDM

Flight info

Callsign BEL2PN
Flight time 1h 0m
Altitude 35000
Route SOPOK Y863 ROPUV L607 EMGOD DCT MOVUM T109 HAREM T104 ROKIL ROKIL1B
Aircraft A319/M-DE3FGIJ1LORVWY/H

Departure

Time 2026-05-05 11:55
Airport Brussels Airport (EBBR)

Arrival

Time 2026-05-05 12:55
Airport Munich Airport (EDDM)
Time Latitude Longitude Altitude Speed Heading
2026-05-05 11:16 50.90263 4.48518 119 ft 0 kts 335°
2026-05-05 11:46 50.90251 4.48526 118 ft 2 kts 336°
2026-05-05 11:46 50.90236 4.48536 121 ft 2 kts 337°
2026-05-05 11:47 50.90221 4.48546 118 ft 2 kts 339°
2026-05-05 11:47 50.90205 4.48555 121 ft 2 kts 345°
2026-05-05 11:47 50.90189 4.48560 120 ft 2 kts 12°
2026-05-05 11:47 50.90177 4.48546 123 ft 2 kts 68°
2026-05-05 11:48 50.90171 4.48527 121 ft 0 kts 66°
2026-05-05 11:50 50.90175 4.48539 123 ft 4 kts 64°
2026-05-05 11:50 50.90201 4.48628 121 ft 13 kts 65°
2026-05-05 11:50 50.90244 4.48775 120 ft 16 kts 65°
2026-05-05 11:50 50.90295 4.48954 122 ft 19 kts 65°
2026-05-05 11:51 50.90356 4.49163 125 ft 22 kts 65°
2026-05-05 11:51 50.90414 4.49389 122 ft 23 kts 79°
2026-05-05 11:51 50.90349 4.49539 121 ft 18 kts 168°
2026-05-05 11:51 50.90222 4.49497 128 ft 19 kts 194°
2026-05-05 11:52 50.90087 4.49442 131 ft 21 kts 194°
2026-05-05 11:52 50.89941 4.49382 135 ft 22 kts 194°
2026-05-05 11:52 50.89798 4.49324 143 ft 20 kts 194°
2026-05-05 11:52 50.89666 4.49270 151 ft 19 kts 194°
2026-05-05 11:53 50.89553 4.49182 160 ft 18 kts 197°
2026-05-05 11:53 50.89434 4.49135 163 ft 18 kts 194°
2026-05-05 11:53 50.89315 4.49087 167 ft 18 kts 194°
2026-05-05 11:53 50.89199 4.49038 175 ft 16 kts 195°
2026-05-05 11:54 50.89139 4.49036 177 ft 5 kts 117°
2026-05-05 11:54 50.89148 4.49097 176 ft 6 kts 69°
2026-05-05 11:54 50.89180 4.49232 176 ft 32 kts 69°
2026-05-05 11:54 50.89381 4.50101 178 ft 131 kts 69°
2026-05-05 11:55 50.89736 4.51624 763 ft 151 kts 68°
2026-05-05 11:55 50.90158 4.53147 1758 ft 148 kts 62°
2026-05-05 11:55 50.90608 4.54571 2657 ft 145 kts 60°
2026-05-05 11:55 50.91063 4.55981 3493 ft 145 kts 61°
2026-05-05 11:56 50.91555 4.57499 4030 ft 165 kts 61°
2026-05-05 11:56 50.92112 4.59217 4508 ft 188 kts 62°
2026-05-05 11:56 50.92751 4.61192 5012 ft 214 kts 62°
2026-05-05 11:56 50.93314 4.62942 5494 ft 234 kts 62°
2026-05-05 11:57 50.93986 4.65437 6153 ft 257 kts 70°
2026-05-05 11:57 50.94555 4.68197 7035 ft 267 kts 72°
2026-05-05 11:57 50.95089 4.71030 8053 ft 273 kts 73°
2026-05-05 11:57 50.95438 4.73956 9397 ft 264 kts 88°
2026-05-05 11:58 50.95213 4.76841 10499 ft 266 kts 106°
2026-05-05 11:58 50.94419 4.79488 11515 ft 269 kts 124°
2026-05-05 11:58 50.93119 4.81650 12510 ft 274 kts 139°
2026-05-05 11:58 50.91648 4.83570 13536 ft 275 kts 138°
2026-05-05 11:59 50.90224 4.85614 14423 ft 277 kts 129°
2026-05-05 11:59 50.88948 4.88012 14891 ft 297 kts 129°
2026-05-05 11:59 50.87572 4.90624 15185 ft 321 kts 128°
2026-05-05 11:59 50.86098 4.93424 15542 ft 339 kts 129°
2026-05-05 12:00 50.84564 4.96335 16190 ft 347 kts 129°
2026-05-05 12:00 50.83009 4.99281 16978 ft 352 kts 130°
2026-05-05 12:00 50.81435 5.02256 17803 ft 354 kts 130°
2026-05-05 12:00 50.79841 5.05264 18515 ft 359 kts 130°
2026-05-05 12:01 50.78233 5.08302 19205 ft 362 kts 130°
2026-05-05 12:01 50.76608 5.11369 19918 ft 365 kts 130°
2026-05-05 12:01 50.74964 5.14466 20581 ft 370 kts 131°
2026-05-05 12:01 50.73299 5.17595 21239 ft 375 kts 131°
2026-05-05 12:02 50.71590 5.20805 21921 ft 379 kts 131°
2026-05-05 12:02 50.69907 5.23961 22593 ft 383 kts 131°
2026-05-05 12:02 50.68184 5.27187 23263 ft 386 kts 131°
2026-05-05 12:02 50.66423 5.30479 23840 ft 390 kts 131°
2026-05-05 12:03 50.64668 5.33761 24390 ft 393 kts 132°
2026-05-05 12:03 50.62902 5.37063 24945 ft 395 kts 132°
2026-05-05 12:03 50.61129 5.40369 25489 ft 398 kts 132°
2026-05-05 12:03 50.59332 5.43714 26026 ft 400 kts 132°
2026-05-05 12:04 50.57538 5.47057 26547 ft 403 kts 133°
2026-05-05 12:04 50.55717 5.50444 27054 ft 405 kts 133°
2026-05-05 12:04 50.53890 5.53838 27573 ft 408 kts 133°
2026-05-05 12:04 50.52046 5.57250 28108 ft 411 kts 133°
2026-05-05 12:05 50.50181 5.60694 28580 ft 415 kts 134°
2026-05-05 12:05 50.48304 5.64157 29053 ft 418 kts 134°
2026-05-05 12:05 50.46410 5.67647 29542 ft 421 kts 134°
2026-05-05 12:05 50.44504 5.71158 29997 ft 424 kts 134°
2026-05-05 12:06 50.42585 5.74691 30385 ft 427 kts 134°
2026-05-05 12:06 50.40653 5.78242 30787 ft 429 kts 134°
2026-05-05 12:06 50.38712 5.81806 31173 ft 431 kts 134°
2026-05-05 12:06 50.36767 5.85372 31559 ft 433 kts 135°
2026-05-05 12:07 50.34802 5.88967 31951 ft 435 kts 135°
2026-05-05 12:07 50.32835 5.92563 32481 ft 433 kts 135°
2026-05-05 12:07 50.30880 5.96135 33044 ft 431 kts 135°
2026-05-05 12:07 50.28934 5.99687 33578 ft 429 kts 136°
2026-05-05 12:08 50.26965 6.03272 34105 ft 428 kts 136°
2026-05-05 12:08 50.25053 6.06745 34563 ft 426 kts 135°
2026-05-05 12:08 50.23097 6.10294 35020 ft 425 kts 135°
2026-05-05 12:08 50.21295 6.13985 35400 ft 431 kts 127°
2026-05-05 12:09 50.19927 6.18176 35772 ft 438 kts 116°
2026-05-05 12:09 50.19074 6.22769 36133 ft 445 kts 104°
2026-05-05 12:09 50.18797 6.27606 36485 ft 451 kts 93°
2026-05-05 12:09 50.19039 6.32506 36840 ft 454 kts 88°
2026-05-05 12:10 50.19356 6.37406 37206 ft 454 kts 88°
2026-05-05 12:10 50.19664 6.42300 37575 ft 453 kts 88°
2026-05-05 12:10 50.19963 6.47198 37877 ft 453 kts 88°
2026-05-05 12:10 50.20258 6.52102 38191 ft 454 kts 88°
2026-05-05 12:11 50.20549 6.57005 38514 ft 454 kts 88°
2026-05-05 12:11 50.20839 6.61907 38749 ft 454 kts 88°
2026-05-05 12:11 50.21419 6.71738 38851 ft 455 kts 88°
2026-05-05 12:12 50.22003 6.81573 38856 ft 455 kts 88°
2026-05-05 12:12 50.21867 6.91366 38856 ft 451 kts 98°
2026-05-05 12:13 50.21342 7.01159 38863 ft 453 kts 98°
2026-05-05 12:13 50.20823 7.10947 38865 ft 453 kts 98°
2026-05-05 12:14 50.20303 7.20752 38864 ft 453 kts 98°
2026-05-05 12:14 50.19760 7.30545 38867 ft 452 kts 101°
2026-05-05 12:15 50.18236 7.39951 38839 ft 446 kts 111°
2026-05-05 12:15 50.16367 7.49219 38851 ft 445 kts 111°
2026-05-05 12:16 50.14508 7.58436 38850 ft 445 kts 111°
2026-05-05 12:16 50.12647 7.67620 38851 ft 444 kts 111°
2026-05-05 12:17 50.10776 7.76785 38853 ft 444 kts 111°
2026-05-05 12:17 50.08899 7.85945 38843 ft 444 kts 111°
2026-05-05 12:18 50.07023 7.95106 38853 ft 444 kts 111°
2026-05-05 12:18 50.05133 8.04256 38858 ft 444 kts 112°
2026-05-05 12:19 50.03230 8.13398 38863 ft 445 kts 112°
2026-05-05 12:19 50.01324 8.22555 38868 ft 445 kts 112°
2026-05-05 12:20 49.99413 8.31702 38852 ft 445 kts 112°
2026-05-05 12:20 49.97805 8.39359 38859 ft 445 kts 112°
2026-05-05 12:21 49.95868 8.48506 38842 ft 446 kts 112°
2026-05-05 12:21 49.93329 8.57174 38842 ft 438 kts 124°
2026-05-05 12:22 49.90306 8.65387 38845 ft 438 kts 124°
2026-05-05 12:22 49.87280 8.73593 38850 ft 439 kts 124°
2026-05-05 12:23 49.84241 8.81797 38847 ft 439 kts 124°
2026-05-05 12:23 49.81194 8.89967 38849 ft 438 kts 124°
2026-05-05 12:24 49.78144 8.98129 38857 ft 438 kts 124°
2026-05-05 12:24 49.75096 9.06286 38845 ft 438 kts 124°
2026-05-05 12:25 49.72040 9.14430 38844 ft 438 kts 124°
2026-05-05 12:25 49.68976 9.22566 38846 ft 438 kts 124°
2026-05-05 12:26 49.65906 9.30688 38857 ft 439 kts 124°
2026-05-05 12:26 49.62821 9.38819 38857 ft 438 kts 124°
2026-05-05 12:27 49.59151 9.46176 38855 ft 432 kts 135°
2026-05-05 12:27 49.55182 9.53128 38841 ft 432 kts 135°
2026-05-05 12:28 49.51204 9.60093 38769 ft 438 kts 135°
2026-05-05 12:28 49.49137 9.63697 38542 ft 448 kts 135°
2026-05-05 12:28 49.47070 9.67304 38270 ft 452 kts 135°
2026-05-05 12:29 49.44990 9.70935 37983 ft 452 kts 135°
2026-05-05 12:29 49.42927 9.74533 37692 ft 443 kts 135°
2026-05-05 12:29 49.40908 9.78057 37403 ft 436 kts 135°
2026-05-05 12:29 49.38912 9.81531 37145 ft 433 kts 136°
2026-05-05 12:30 49.36921 9.84984 36849 ft 431 kts 136°
2026-05-05 12:30 49.34925 9.88432 36583 ft 432 kts 136°
2026-05-05 12:30 49.32929 9.91867 36320 ft 431 kts 136°
2026-05-05 12:30 49.30935 9.95299 36057 ft 430 kts 136°
2026-05-05 12:31 49.28934 9.98737 35223 ft 435 kts 136°
2026-05-05 12:31 49.26919 10.02195 34357 ft 438 kts 136°
2026-05-05 12:31 49.24885 10.05688 33425 ft 439 kts 136°
2026-05-05 12:31 49.22868 10.09149 32907 ft 431 kts 136°
2026-05-05 12:32 49.20888 10.12546 32311 ft 425 kts 136°
2026-05-05 12:32 49.18930 10.15897 31734 ft 419 kts 136°
2026-05-05 12:32 49.16998 10.19194 31162 ft 415 kts 136°
2026-05-05 12:32 49.15085 10.22459 30575 ft 411 kts 136°
2026-05-05 12:33 49.13180 10.25689 30040 ft 407 kts 137°
2026-05-05 12:33 49.11260 10.28839 29436 ft 404 kts 137°
2026-05-05 12:33 49.09333 10.31928 28900 ft 399 kts 138°
2026-05-05 12:33 49.07421 10.34961 28361 ft 395 kts 138°
2026-05-05 12:34 49.05526 10.37964 27822 ft 392 kts 137°
2026-05-05 12:34 49.03647 10.40944 27312 ft 388 kts 137°
2026-05-05 12:34 49.01787 10.43904 26797 ft 385 kts 137°
2026-05-05 12:34 48.99948 10.46844 26305 ft 382 kts 137°
2026-05-05 12:35 48.98126 10.49762 25816 ft 379 kts 137°
2026-05-05 12:35 48.96288 10.52695 25337 ft 377 kts 137°
2026-05-05 12:35 48.94479 10.55570 24867 ft 375 kts 137°
2026-05-05 12:35 48.92678 10.58433 24374 ft 374 kts 137°
2026-05-05 12:36 48.90884 10.61287 23916 ft 373 kts 137°
2026-05-05 12:36 48.89099 10.64122 23425 ft 372 kts 136°
2026-05-05 12:36 48.87308 10.66965 22882 ft 371 kts 136°
2026-05-05 12:36 48.85530 10.69785 22381 ft 368 kts 136°
2026-05-05 12:37 48.83760 10.72584 21874 ft 366 kts 136°
2026-05-05 12:37 48.82006 10.75357 21371 ft 363 kts 136°
2026-05-05 12:37 48.80265 10.78108 20871 ft 360 kts 137°
2026-05-05 12:37 48.78532 10.80839 20363 ft 358 kts 137°
2026-05-05 12:38 48.76812 10.83538 19862 ft 356 kts 137°
2026-05-05 12:38 48.75087 10.86239 19354 ft 356 kts 137°
2026-05-05 12:38 48.73364 10.88935 18844 ft 357 kts 137°
2026-05-05 12:38 48.71636 10.91635 18344 ft 356 kts 137°
2026-05-05 12:39 48.69916 10.94321 17797 ft 353 kts 137°
2026-05-05 12:39 48.68218 10.96970 17310 ft 348 kts 137°
2026-05-05 12:39 48.66541 10.99583 16829 ft 344 kts 137°
2026-05-05 12:39 48.64884 11.02164 16365 ft 341 kts 137°
2026-05-05 12:40 48.63239 11.04724 15905 ft 337 kts 137°
2026-05-05 12:40 48.61611 11.07251 15447 ft 335 kts 136°
2026-05-05 12:40 48.59991 11.09761 14994 ft 333 kts 136°
2026-05-05 12:40 48.58377 11.12246 14545 ft 330 kts 139°
2026-05-05 12:41 48.56573 11.14349 14072 ft 327 kts 148°
2026-05-05 12:41 48.54705 11.16307 13575 ft 327 kts 142°
2026-05-05 12:41 48.53199 11.18876 13033 ft 329 kts 123°
2026-05-05 12:41 48.52335 11.22102 12600 ft 328 kts 103°
2026-05-05 12:42 48.52220 11.25498 12319 ft 325 kts 85°
2026-05-05 12:42 48.52654 11.28855 12096 ft 325 kts 79°
2026-05-05 12:42 48.53130 11.32188 11798 ft 325 kts 79°
2026-05-05 12:42 48.53595 11.35533 11492 ft 326 kts 79°
2026-05-05 12:43 48.53939 11.38897 11161 ft 324 kts 90°
2026-05-05 12:43 48.53866 11.42274 10845 ft 322 kts 94°
2026-05-05 12:43 48.53750 11.45632 10539 ft 317 kts 94°
2026-05-05 12:43 48.53633 11.48901 10297 ft 308 kts 94°
2026-05-05 12:44 48.53518 11.52064 10059 ft 301 kts 94°
2026-05-05 12:44 48.53404 11.55183 9820 ft 295 kts 94°
2026-05-05 12:44 48.53289 11.58254 9572 ft 293 kts 94°
2026-05-05 12:44 48.53171 11.61319 9309 ft 291 kts 94°
2026-05-05 12:45 48.53052 11.64372 9039 ft 290 kts 94°
2026-05-05 12:45 48.52930 11.67390 8733 ft 288 kts 94°
2026-05-05 12:45 48.52805 11.70409 8425 ft 287 kts 94°
2026-05-05 12:45 48.52519 11.73369 8109 ft 284 kts 103°
2026-05-05 12:46 48.52067 11.76266 7812 ft 283 kts 104°
2026-05-05 12:46 48.51616 11.79148 7517 ft 282 kts 104°
2026-05-05 12:46 48.51165 11.82014 7224 ft 281 kts 104°
2026-05-05 12:46 48.50713 11.84871 6926 ft 279 kts 104°
2026-05-05 12:47 48.50261 11.87714 6671 ft 279 kts 104°
2026-05-05 12:47 48.49810 11.90544 6418 ft 277 kts 104°
2026-05-05 12:47 48.49360 11.93371 6189 ft 276 kts 104°
2026-05-05 12:47 48.48913 11.96184 5937 ft 275 kts 104°
2026-05-05 12:48 48.48469 11.98969 5678 ft 275 kts 104°
2026-05-05 12:48 48.48017 12.01776 5427 ft 274 kts 105°
2026-05-05 12:48 48.47562 12.04601 5172 ft 273 kts 105°
2026-05-05 12:48 48.47122 12.07335 5012 ft 271 kts 104°
2026-05-05 12:49 48.46685 12.10045 4989 ft 253 kts 104°
2026-05-05 12:49 48.46214 12.12488 4986 ft 234 kts 117°
2026-05-05 12:49 48.45176 12.14199 4990 ft 217 kts 152°
2026-05-05 12:49 48.43753 12.14833 5002 ft 214 kts 172°
2026-05-05 12:50 48.42274 12.15114 4994 ft 215 kts 177°
2026-05-05 12:50 48.40833 12.14644 4996 ft 214 kts 207°
2026-05-05 12:50 48.39663 12.13272 5002 ft 216 kts 231°
2026-05-05 12:50 48.38941 12.11314 4997 ft 216 kts 253°
2026-05-05 12:51 48.38696 12.09092 4874 ft 214 kts 264°
2026-05-05 12:51 48.38541 12.06885 4644 ft 212 kts 264°
2026-05-05 12:51 48.38385 12.04717 4388 ft 206 kts 264°
2026-05-05 12:51 48.38231 12.02638 4106 ft 194 kts 264°
2026-05-05 12:52 48.38085 12.00683 3866 ft 182 kts 264°
2026-05-05 12:52 48.37948 11.98841 3631 ft 173 kts 264°
2026-05-05 12:52 48.37817 11.97090 3420 ft 165 kts 264°
2026-05-05 12:52 48.37691 11.95414 3215 ft 157 kts 264°
2026-05-05 12:53 48.37611 11.94354 3081 ft 151 kts 264°
2026-05-05 12:53 48.37494 11.92824 2885 ft 144 kts 264°
2026-05-05 12:53 48.37385 11.91354 2699 ft 138 kts 264°
2026-05-05 12:53 48.37278 11.89930 2520 ft 137 kts 264°
2026-05-05 12:54 48.37064 11.87093 2158 ft 137 kts 265°
2026-05-05 12:54 48.36954 11.85646 1962 ft 138 kts 265°
2026-05-05 12:54 48.36845 11.84208 1790 ft 139 kts 266°
2026-05-05 12:55 48.36736 11.82775 1614 ft 138 kts 265°
2026-05-05 12:55 48.36626 11.81363 1491 ft 128 kts 265°
2026-05-05 12:55 48.36542 11.80209 1485 ft 88 kts 263°
2026-05-05 12:55 48.36461 11.79726 1481 ft 33 kts 236°
2026-05-05 12:56 48.36349 11.79496 1485 ft 14 kts 233°
2026-05-05 12:56 48.36289 11.79373 1485 ft 15 kts 233°
2026-05-05 12:56 48.36203 11.79296 1485 ft 15 kts 180°
2026-05-05 12:56 48.36141 11.79308 1480 ft 1 kts 172°
2026-05-05 12:57 48.36128 11.79310 1478 ft 3 kts 173°